Location: Pilipovskiye Korichintsy
(49.1833°N, 27.4667°E)
Time: 12:44:04
(UTC+00:00)

Meteor 1-11 Rocket - Pass Details

Date: 14 July 2020
Orbit: 831 x 915 km, 81.2° (Epoch: 07 August)

Event Time Altitude Azimuth Distance (km) Brightness Sun altitude
Exits shadow 00:21:46 15° 180° (S) 2,088 5.2 -13.9°
Maximum altitude 00:26:20 71° 98° (E) 880 3.9 -13.5°
Drops below altitude 10° 00:31:50 10° 16° (NNE) 2,455 7.4 -13.0°
Sets 00:34:16 0° 14° (NNE) 3,398 8.4 -12.8°
